[[{"header":{"parameterUnit":"m.s-1","parameterCategory":1,"la1":30.2991,"la2":30.254,"lo1":-89.0895,"lo2":-89.0444,"dy":0.0017,"dx":0.0017,"nx":28,"ny":28,"refTime":"2024-07-08T21:00:00:Z","depth":0,"parameterNumber":2,"parameterNumberName":"U-component_of_WINDS"},"data":[0,0,0,0,0,0,0,0,0,0,0,0,0,0,0,0,0,0,0,0,0,0,0,0,0,0,0,0,0,0,0,0,0,0,0,0,0,0,0,0,0,0,0,0,0,0,0,0,0,0,0,0,0,0,0,0,0,0,0.7523,0.7524,0,0.7637,0.7638,0.764,0.7682,0.7682,0.7682,0.7681,0.7799,0.7802,0.7805,0,0,0,0,0,0,0,0,0,0,0,0,0,0.7341,0.7344,0.7522,0.7524,0.7525,0.7637,0.7638,0.764,0.7682,0.7682,0.7681,0.7681,0.7797,0.7802,0.7806,0,0,0,0,0,0,0,0,0,0,0,0,0,0.7434,0.7345,0.7522,0.756,0.7565,0.7636,0.7638,0.764,0.7682,0.7682,0.7681,0.7681,0.7796,0.7801,0.7806,0.7849,0,0,0.7822,0.7824,0,0,0,0,0,0,0,0,0.7429,0.7441,0.7553,0.7558,0.7563,0.7645,0.7618,0.771,0.7683,0.7638,0.7681,0.7681,0.7748,0.7757,0.778,0.7855,0.786,0.7823,0.7826,0.7828,0.7829,0,0,0,0,0,0,0,0.7422,0.7436,0.7568,0.7555,0.7561,0.7571,0.7584,0.7635,0.7694,0.7642,0.7645,0.7658,0.775,0.7775,0.7783,0.7861,0.7822,0.7827,0.783,0.7832,0.7979,0.7979,0,0,0,0,0,0,0.741,0.7431,0.7564,0.7571,0.7493,0.7575,0.7589,0.7619,0.7694,0.7705,0.7658,0.7659,0.7766,0.7777,0.7787,0.7844,0.7828,0.7833,0.7836,0.7978,0.7979,0.798,0,0,0,0,0,0,0.7406,0.7421,0.756,0.7502,0.752,0.7579,0.7612,0.7622,0.7646,0.7707,0.7717,0.7672,0.7766,0.778,0.7834,0.7848,0.7835,0.784,0.7977,0.7978,0.7979,0.7956,0,0,0,0,0,0,0.74,0.7419,0.7436,0.7502,0.7523,0.7604,0.7613,0.7624,0.7655,0.7657,0.7722,0.7733,0.7767,0.7826,0.7839,0.7855,0.7844,0.7976,0.7977,0.7979,0.7956,0.7956,0.7956,0,0,0,0,0,0.7394,0.7425,0.7437,0.7453,0.7545,0.7605,0.7617,0.7655,0.7655,0.7673,0.7712,0.7731,0.7844,0.7831,0.7846,0.7864,0.7975,0.7977,0.7979,0.7955,0.7956,0.7956,0,0,0,0,0,0,0.7359,0.7434,0.7448,0.7502,0.7547,0.7612,0.7635,0.7654,0.77,0.7701,0.7747,0.7761,0.7811,0.7843,0.7827,0.791,0.7911,0.7916,0.7888,0.7889,0.7889,0.7881,0.7848,0,0,0,0,0,0.7358,0.74,0.7463,0.7504,0.7526,0.7576,0.7604,0.7629,0.7678,0.7697,0.774,0.7786,0.7833,0.7862,0.7908,0.796,0.7975,0.7979,0.798,0.798,0.7984,0.8015,0.8018,0.7985,0.7985,0.7985,0,0,0.7356,0.7402,0.7425,0.7498,0.7536,0.7579,0.7592,0.7637,0.7669,0.7704,0.7758,0.7791,0.7846,0.7899,0.7925,0.7927,0.7996,0.7982,0.7982,0.7986,0.8017,0.802,0.8023,0.7986,0.7986,0.7986,0,0,0.7374,0.7412,0.7452,0.7489,0.7546,0.758,0.7589,0.7652,0.7675,0.773,0.7757,0.7796,0.7874,0.7913,0.7942,0.7975,0.7994,0.7988,0.7991,0.8021,0.8023,0.8026,0.8039,0.8043,0.7992,0.7992,0.7992,0,0.7364,0.743,0.7469,0.7513,0.7544,0.7577,0.7618,0.7652,0.7721,0.7742,0.7743,0.7843,0.7882,0.7946,0.7954,0.7976,0.7989,0.7982,0.802,0.8023,0.8026,0.8039,0.8044,0.7991,0.7991,0.7991,0.7991,0,0.7415,0.746,0.7485,0.7551,0.7586,0.7627,0.7673,0.7703,0.7725,0.7759,0.7815,0.7862,0.7919,0.7936,0.7958,0.8003,0.8002,0.8011,0.8013,0.8027,0.8041,0.8046,0.799,0.799,0.799,0.799,0,0,0.7416,0.7504,0.7512,0.7543,0.7609,0.7644,0.7687,0.7743,0.7768,0.7814,0.7853,0.7918,0.7927,0.796,0.7987,0.8013,0.8037,0.8018,0.802,0.8022,0.8091,0.8086,0.8091,0.8049,0.8051,0.8051,0.8087,0,0.7444,0.7524,0.756,0.7623,0.7666,0.7698,0.7735,0.778,0.7812,0.7853,0.7888,0.7935,0.7942,0.7963,0.7989,0.8028,0.8052,0.8026,0.8087,0.8088,0.8074,0.8098,0.8092,0.8124,0.8093,0.8093,0.8094,0,0.7488,0.7535,0.7602,0.7663,0.7683,0.7716,0.777,0.7808,0.786,0.7881,0.7919,0.7944,0.7992,0.7989,0.8055,0.8037,0.8063,0.8086,0.8088,0.8097,0.8093,0.8109,0.8135,0.814,0.8102,0.8102,0.8101,0,0.7484,0.7564,0.7615,0.764,0.7712,0.7735,0.7766,0.7816,0.7847,0.7895,0.7916,0.7967,0.7996,0.8036,0.8075,0.8069,0.8138,0.8138,0.8158,0.8158,0.8173,0.8172,0.8205,0.8187,0.8187,0.8186,0.8186,0,0.7513,0.7553,0.7614,0.7645,0.7692,0.7733,0.7778,0.7811,0.7856,0.7895,0.7925,0.7961,0.8009,0.8051,0.8082,0.8133,0.8145,0.8165,0.8173,0.8164,0.8161,0.8183,0.8183,0.8188,0.8188,0.8187,0.8187,0,0.7517,0.7559,0.7617,0.7681,0.7697,0.7729,0.7784,0.7816,0.7849,0.7898,0.7912,0.7964,0.8015,0.8058,0.8125,0.8146,0.8199,0.8208,0.8182,0.8187,0.8206,0.8204,0.8256,0.8266,0.8238,0.8238,0.8239,0,0.7533,0.7565,0.7632,0.7661,0.7692,0.7736,0.7769,0.7811,0.7843,0.7904,0.7929,0.7982,0.8027,0.8107,0.8152,0.8203,0.8215,0.8229,0.8223,0.8212,0.8217,0.8216,0.822,0.823,0.823,0.823,0.823,0,0.7559,0.7578,0.7624,0.7676,0.7714,0.7758,0.7802,0.7823,0.7873,0.7908,0.7961,0.7996,0.8065,0.8118,0.8174,0.8207,0.8228,0.8232,0.824,0.8231,0.8216,0.8227,0.8186,0.8231,0.8231,0.8231,0.8231,0.8231,0.7571,0.7602,0.7654,0.7704,0.7741,0.7782,0.7816,0.7853,0.7898,0.7958,0.7979,0.8034,0.8085,0.8163,0.8195,0.8239,0.8241,0.8252,0.8255,0.8258,0.8258,0.8207,0.8249,0.8249,0.8249,0.8249,0.8249,0,0.76,0.7635,0.768,0.7742,0.7781,0.7796,0.7846,0.7878,0.7926,0.7971,0.8015,0.8076,0.8128,0.8176,0.823,0.8256,0.8267,0.8269,0.8269,0.8276,0.8251,0.824,0.826,0.826,0.8259,0.8259,0.8259,0.8259,0.7619,0.7672,0.7698,0.7769,0.7804,0.7858,0.7886,0.7924,0.7961,0.8028,0.8071,0.8102,0.8149,0.8207,0.8255,0.8268,0.8288,0.8288,0.8303,0.8279,0.8278,0.8276,0.8266,0.8291,0.8291,0.8325,0.8326,0.8326]},{"header":{"parameterUnit":"m.s-1","parameterCategory":1,"la1":30.2991,"la2":30.254,"lo1":-89.0895,"lo2":-89.0444,"dy":0.0017,"dx":0.0017,"nx":28,"ny":28,"refTime":"2024-07-08T21:00:00:Z","depth":0,"parameterNumber":3,"parameterNumberName":"V-component_of_WINDS"},"data":[0,0,0,0,0,0,0,0,0,0,0,0,0,0,0,0,0,0,0,0,0,0,0,0,0,0,0,0,0,0,0,0,0,0,0,0,0,0,0,0,0,0,0,0,0,0,0,0,0,0,0,0,0,0,0,0,0,0,2.051,2.0511,0,2.0637,2.0639,2.064,2.0697,2.0697,2.0697,2.0697,2.0821,2.0825,2.0828,0,0,0,0,0,0,0,0,0,0,0,0,0,2.0307,2.031,2.051,2.0511,2.0513,2.0637,2.0639,2.0641,2.0697,2.0697,2.0697,2.0697,2.082,2.0824,2.0828,0,0,0,0,0,0,0,0,0,0,0,0,0,2.041,2.0311,2.0509,2.0556,2.0562,2.0637,2.0639,2.0641,2.0697,2.0697,2.0697,2.0697,2.0819,2.0824,2.0829,2.0865,0,0,2.0845,2.0847,0,0,0,0,0,0,0,0,2.0404,2.0418,2.0548,2.0553,2.056,2.0651,2.0613,2.0716,2.0697,2.0646,2.0697,2.0697,2.0764,2.0774,2.0798,2.0871,2.0876,2.0845,2.0848,2.0851,2.0852,0,0,0,0,0,0,0,2.0397,2.0412,2.056,2.055,2.0557,2.0568,2.0583,2.0633,2.0704,2.065,2.0655,2.0669,2.0768,2.0793,2.0802,2.0878,2.0845,2.085,2.0853,2.0855,2.0982,2.0982,0,0,0,0,0,0,2.0383,2.0406,2.0556,2.0564,2.048,2.0572,2.0588,2.0622,2.0704,2.0717,2.0669,2.0671,2.0784,2.0796,2.0806,2.0852,2.085,2.0855,2.0858,2.0982,2.0982,2.0983,0,0,0,0,0,0,2.0379,2.0396,2.0551,2.0486,2.0507,2.0576,2.0613,2.0624,2.065,2.0719,2.0731,2.0683,2.0785,2.0799,2.085,2.0857,2.0858,2.0862,2.0982,2.0982,2.0982,2.0945,0,0,0,0,0,0,2.0373,2.0394,2.0411,2.0486,2.051,2.0595,2.0614,2.0627,2.066,2.0664,2.0735,2.0746,2.0786,2.0841,2.0855,2.0864,2.0866,2.0981,2.0982,2.0982,2.0946,2.0944,2.0943,0,0,0,0,0,2.0365,2.0395,2.0412,2.0429,2.0533,2.0595,2.0608,2.0655,2.066,2.0676,2.0719,2.0744,2.0854,2.0846,2.0861,2.0873,2.0981,2.0982,2.0982,2.0947,2.0945,2.0943,0,0,0,0,0,0,2.0318,2.0406,2.0425,2.0481,2.053,2.0605,2.0627,2.0652,2.0699,2.0701,2.0754,2.077,2.0815,2.0849,2.0839,2.091,2.0919,2.0923,2.0887,2.0886,2.0884,2.0875,2.0871,0,0,0,0,0,2.0314,2.0359,2.0433,2.0474,2.0498,2.0557,2.0586,2.0618,2.067,2.0691,2.0738,2.0786,2.0831,2.086,2.0906,2.095,2.0965,2.0965,2.0963,2.0962,2.0965,2.0988,2.0988,2.0985,2.0985,2.0985,0,0,2.0306,2.0359,2.0385,2.0466,2.0508,2.0551,2.0575,2.062,2.0652,2.0697,2.0749,2.0784,2.084,2.0888,2.0911,2.0917,2.0968,2.0963,2.0961,2.0965,2.0989,2.0989,2.0989,2.0985,2.0985,2.0985,0,0,2.0314,2.036,2.0399,2.044,2.0503,2.0542,2.0551,2.0621,2.0647,2.0699,2.0733,2.0769,2.0847,2.0885,2.0915,2.0932,2.0956,2.0945,2.0937,2.0959,2.096,2.096,2.0965,2.0966,2.0947,2.0947,2.0947,0,2.0296,2.0365,2.0415,2.0458,2.0491,2.0534,2.0572,2.0608,2.0682,2.0703,2.0709,2.0805,2.0847,2.0902,2.0906,2.0929,2.0939,2.0938,2.0956,2.0957,2.0958,2.0963,2.0965,2.0946,2.0946,2.0946,2.0946,0,2.0338,2.0385,2.0408,2.048,2.0515,2.0555,2.0608,2.0637,2.0664,2.07,2.0751,2.0801,2.0857,2.0872,2.0898,2.093,2.0932,2.0946,2.0957,2.0956,2.0962,2.0964,2.0943,2.0944,2.0944,2.0945,0,0,2.0324,2.042,2.0427,2.0459,2.053,2.0566,2.0605,2.0661,2.0684,2.0731,2.0765,2.0827,2.084,2.0873,2.0904,2.0923,2.0932,2.0935,2.0937,2.0932,2.0967,2.0957,2.0958,2.0947,2.0948,2.0948,2.0962,0,2.0341,2.0418,2.0461,2.0518,2.056,2.0599,2.0633,2.0679,2.0713,2.0751,2.0788,2.0831,2.0846,2.0866,2.0887,2.0926,2.0939,2.0926,2.0977,2.0978,2.0962,2.0962,2.0951,2.0963,2.0965,2.0966,2.0966,0,2.0373,2.0421,2.0482,2.0546,2.0565,2.0595,2.0648,2.0685,2.0735,2.0758,2.0793,2.0824,2.0864,2.0869,2.0924,2.0913,2.0936,2.0958,2.0959,2.0967,2.0973,2.0969,2.0968,2.0969,2.097,2.097,2.0969,0,2.0354,2.0434,2.0481,2.0506,2.0582,2.0602,2.0633,2.0684,2.0713,2.0758,2.0777,2.0825,2.0851,2.0886,2.0926,2.0927,2.0976,2.0986,2.0995,2.0994,2.1005,2.1004,2.1007,2.1018,2.1018,2.1018,2.1018,0,2.037,2.0405,2.0473,2.0502,2.0541,2.0589,2.0626,2.0661,2.0705,2.0738,2.0774,2.0804,2.0856,2.0892,2.0923,2.0962,2.0974,2.0992,2.1,2.099,2.0987,2.1006,2.1006,2.1019,2.1018,2.1018,2.1018,0,2.0357,2.0404,2.0457,2.0523,2.0541,2.0567,2.0622,2.065,2.0684,2.0726,2.0739,2.0793,2.0836,2.088,2.0938,2.0959,2.0997,2.1008,2.0981,2.0986,2.0992,2.0991,2.1009,2.1013,2.102,2.102,2.102,0,2.0364,2.0393,2.0461,2.0487,2.0519,2.056,2.059,2.0636,2.0665,2.0722,2.0742,2.0788,2.0828,2.0895,2.0938,2.0982,2.0994,2.0997,2.1001,2.0989,2.0994,2.0992,2.0994,2.0996,2.0996,2.0996,2.0995,0,2.0371,2.0392,2.0436,2.0485,2.052,2.0562,2.0604,2.0622,2.0676,2.0706,2.0752,2.0782,2.0841,2.0886,2.0934,2.0964,2.0988,2.0993,2.0998,2.0988,2.0971,2.0979,2.0977,2.0993,2.0993,2.0994,2.0994,2.0994,2.0369,2.0395,2.0447,2.0493,2.0529,2.0567,2.0595,2.0633,2.0673,2.0726,2.0749,2.0794,2.084,2.0908,2.0937,2.0971,2.0977,2.0984,2.0986,2.0987,2.0984,2.0964,2.098,2.098,2.098,2.098,2.098,0,2.0378,2.0412,2.0454,2.0512,2.0546,2.0566,2.0613,2.064,2.068,2.0721,2.0759,2.081,2.0852,2.0897,2.0942,2.096,2.0972,2.097,2.097,2.0976,2.0976,2.0968,2.096,2.096,2.096,2.096,2.096,2.096,2.0386,2.0431,2.0457,2.0519,2.0553,2.0599,2.0623,2.0657,2.069,2.0746,2.0782,2.0811,2.0853,2.09,2.0939,2.0951,2.0966,2.0961,2.0976,2.0975,2.0976,2.0978,2.097,2.0964,2.0964,2.0973,2.0974,2.0974]}]]